EW8556 Weather Reports


time (UTC)temp
F
wind
direction
speed
knots
gust
knots
rain 1hr
in
rain 24hr
in
rain mn
in
humidity
%
barometer
mb
20260505052246 59 213 2.6 4.3 0.00 0.00 0.00 66 1010.3
20260505051746 59 154 1.7 3.5 0.00 0.00 0.00 66 1010.2
20260505051350 60 213 1.7 5.2 0.00 0.00 0.00 65 1010.3
20260505051330 59 199 2.6 3.5 0.00 0.00 0.00 65 1010.2
20260505050232 60 185 2.6 5.2 0.00 0.00 0.00 64 1010.3
20260505041234 61 155 3.5 8.7 0.00 0.00 0.00 60 1010.0
20260505041051 61 196 3.5 9.6 0.00 0.00 0.00 60 1010.0
20260505040232 61 210 2.6 9.6 0.00 0.00 0.00 59 1010.0
20260505035732 61 206 2.6 5.2 0.00 0.00 0.00 58 1010.0
20260505035232 62 162 2.6 7.8 0.00 0.00 0.00 58 1010.0
20260505034915 62 203 2.6 8.7 0.00 0.00 0.00 57 1010.0
20260505034832 62 169 2.6 7.8 0.00 0.00 0.00 57 1010.0
20260505033732 62 210 3.5 8.7 0.00 0.00 0.00 56 1010.1
20260505033232 62 0.0 0.0 0.00 0.00 0.00 56 1010.1
20260505033043 62 185 4.3 6.1 0.00 0.00 0.00 55 1010.1
20260505032525 62 185 4.3 7.8 0.00 0.00 0.00 55 1010.2
20260505031731 62 180 4.3 7.8 0.00 0.00 0.00 55 1010.1
20260505031231 62 179 3.5 8.7 0.00 0.00 0.00 53 1010.2
20260505030916 62 165 4.3 8.7 0.00 0.00 0.00 53 1010.2
20260505030839 62 202 2.6 8.7 0.00 0.00 0.00 53 1010.2
20260505025859 62 193 2.6 5.2 0.00 0.00 0.00 52 1010.1
20260505025823 62 193 3.5 7.8 0.00 0.00 0.00 52 1010.1
20260505024732 62 154 1.7 3.5 0.00 0.00 0.00 52 1010.0
20260505024231 62 178 2.6 4.3 0.00 0.00 0.00 52 1010.1
20260505023732 62 159 2.6 4.3 0.00 0.00 0.00 52 1010.2
20260505023233 62 210 1.7 6.1 0.00 0.00 0.00 52 1010.3
20260505022733 62 169 1.7 7.8 0.00 0.00 0.00 52 1010.3
20260505022232 62 214 3.5 7.8 0.00 0.00 0.00 52 1010.3
20260505021732 62 196 2.6 7.8 0.00 0.00 0.00 53 1010.4
20260505021231 62 234 3.5 7.8 0.00 0.00 0.00 52 1010.4
20260505020731 61 195 2.6 8.7 0.00 0.00 0.00 53 1010.4
20260505020232 62 214 1.7 8.7 0.00 0.00 0.00 53 1010.3
20260505015730 62 193 0.9 2.6 0.00 0.00 0.00 53 1010.4
20260505015231 62 189 0.9 3.5 0.00 0.00 0.00 52 1010.4
20260505014731 63 192 1.7 3.5 0.00 0.00 0.00 51 1010.3
20260505014232 63 189 0.9 3.5 0.00 0.00 0.00 50 1010.2
20260505014036 63 192 1.7 5.2 0.00 0.00 0.00 50 1010.1
20260505013552 64 176 2.6 5.2 0.00 0.00 0.00 50 1010.3
20260505012731 64 190 1.7 7.8 0.00 0.00 0.00 49 1010.2
20260505012231 63 200 3.5 7.8 0.00 0.00 0.00 49 1010.2
20260505011732 63 200 1.7 3.5 0.00 0.00 0.00 50 1010.2
20260505011232 63 226 1.7 3.5 0.00 0.00 0.00 49 1010.2
20260505010732 63 231 0.9 4.3 0.00 0.00 0.00 50 1010.0
20260505010232 63 220 2.6 4.3 0.00 0.00 0.00 50 1010.0
20260505005732 62 158 2.6 4.3 0.00 0.00 0.00 51 1010.0
20260505005231 62 197 0.9 2.6 0.00 0.00 0.00 52 1009.9
20260505005059 63 214 0.0 3.5 0.00 0.00 0.00 51 1009.8
20260505004417 64 193 1.7 4.3 0.00 0.00 0.00 50 1009.8
20260505004335 63 207 1.7 3.5 0.00 0.00 0.00 50 1009.8
20260505003232 64 226 0.9 4.3 0.00 0.00 0.00 48 1009.7
20260505002732 65 202 1.7 3.5 0.00 0.00 0.00 47 1009.6
20260505002232 65 197 0.9 3.5 0.00 0.00 0.00 47 1009.6
20260505002042 65 199 2.6 3.5 0.00 0.00 0.00 47 1009.6
20260505001232 65 219 1.7 4.3 0.00 0.00 0.00 46 1009.5
20260505000731 66 206 1.7 4.3 0.00 0.00 0.00 45 1009.5
20260505000233 66 166 1.7 5.2 0.00 0.00 0.00 46 1009.5
20260504235732 66 264 1.7 6.1 0.00 0.00 0.00 45 1009.4
20260504235229 67 212 0.9 6.1 0.00 0.00 0.00 45 1009.4
20260504234729 67 200 1.7 7.8 0.00 0.00 0.00 46 1009.4
20260504234229 67 161 3.5 7.8 0.00 0.00 0.00 44 1009.4
20260504233730 67 227 3.5 7.8 0.00 0.00 0.00 44 1009.4
20260504233204 67 204 3.5 7.8 0.00 0.00 0.00 43 1009.4
20260504232704 68 197 1.7 4.3 0.00 0.00 0.00 44 1009.5
20260504232204 68 214 1.7 6.1 0.00 0.00 0.00 43 1009.4
20260504231705 69 214 2.6 8.7 0.00 0.00 0.00 41 1009.5
20260504231206 69 189 4.3 8.7 0.00 0.00 0.00 42 1009.4
20260504230704 69 240 2.6 7.8 0.00 0.00 0.00 42 1009.4
20260504230157 69 209 2.6 8.7 0.00 0.00 0.00 43 1009.3
20260504225656 69 182 4.3 9.6 0.00 0.00 0.00 41 1009.4
20260504225153 69 197 4.3 9.6 0.00 0.00 0.00 41 1009.4
20260504224655 69 183 1.7 8.7 0.00 0.00 0.00 41 1009.5
20260504224149 69 227 2.6 7.8 0.00 0.00 0.00 41 1009.4
20260504223648 69 179 3.5 8.7 0.00 0.00 0.00 42 1009.5
20260504223149 69 257 5.2 9.6 0.00 0.00 0.00 40 1009.4
20260504222648 70 206 4.3 9.6 0.00 0.00 0.00 39 1009.5
20260504222147 70 272 6.1 10.4 0.00 0.00 0.00 39 1009.5
20260504221646 70 276 6.1 10.4 0.00 0.00 0.00 39 1009.5
20260504221144 70 279 4.3 12.2 0.00 0.00 0.00 40 1009.6
20260504220637 70 172 5.2 12.2 0.00 0.00 0.00 41 1009.5
20260504220135 70 281 5.2 8.7 0.00 0.00 0.00 39 1009.5
20260504215932 70 235 5.2 9.6 0.00 0.00 0.00 39 1009.5
20260504215132 71 247 5.2 13.0 0.00 0.00 0.00 40 1009.7
20260504214631 71 206 6.1 13.0 0.00 0.00 0.00 40 1009.6
20260504214427 71 223 6.1 10.4 0.00 0.00 0.00 38 1009.6
20260504213951 71 252 4.3 10.4 0.00 0.00 0.00 38 1009.6
20260504213132 0 234 6.1 8.7 0.00 0.00 0.00 1009.6
20260504212632 0 305 6.1 8.7 0.00 0.00 0.00 1009.7
20260504212128 71 305 6.1 8.7 0.00 0.00 0.00 37 1009.6
20260504211628 71 279 5.2 9.6 0.00 0.00 0.00 37 1009.6
20260504211127 71 164 4.3 9.6 0.00 0.00 0.00 38 1009.6
20260504210628 71 281 4.3 9.6 0.00 0.00 0.00 40 1009.6
20260504210127 71 248 2.6 8.7 0.00 0.00 0.00 40 1009.6
20260504205628 71 190 4.3 11.3 0.00 0.00 0.00 38 1009.6
20260504205126 71 271 6.1 13.0 0.00 0.00 0.00 40 1009.6
20260504204627 71 193 4.3 13.9 0.00 0.00 0.00 39 1009.7
20260504204129 71 243 5.2 13.9 0.00 0.00 0.00 41 1009.7
20260504203627 71 234 6.1 13.0 0.00 0.00 0.00 37 1009.8
20260504203126 71 189 2.6 11.3 0.00 0.00 0.00 37 1009.7
20260504202626 71 212 5.2 9.6 0.00 0.00 0.00 40 1009.8
20260504202441 71 196 4.3 10.4 0.00 0.00 0.00 39 1009.8
20260504201627 71 200 6.1 12.2 0.00 0.00 0.00 38 1010.0
20260504201127 72 204 3.5 12.2 0.00 0.00 0.00 37 1009.9
20260504200935 72 207 4.3 9.6 0.00 0.00 0.00 37 1009.9
20260504200126 71 241 5.2 9.6 0.00 0.00 0.00 39 1010.0
20260504195626 71 221 3.5 5.2 0.00 0.00 0.00 39 1010.1
20260504195125 71 221 3.5 7.8 0.00 0.00 0.00 40 1010.1
20260504194625 71 199 4.3 11.3 0.00 0.00 0.00 41 1010.3
20260504194126 71 207 6.1 11.3 0.00 0.00 0.00 42 1010.2
20260504193758 71 210 5.2 9.6 0.00 0.00 0.00 40 1010.3
20260504193720 71 221 5.2 10.4 0.00 0.00 0.00 43 1010.3
20260504192625 70 240 4.3 9.6 0.00 0.00 0.00 41 1010.3
20260504192124 71 169 4.3 9.6 0.00 0.00 0.00 38 1010.4
20260504191624 71 226 4.3 10.4 0.00 0.00 0.00 38 1010.5
20260504191124 71 265 4.3 10.4 0.00 0.00 0.00 37 1010.5
20260504190626 71 199 3.5 12.2 0.00 0.00 0.00 40 1010.5
20260504190126 71 212 2.6 12.2 0.00 0.00 0.00 40 1010.6
20260504185623 71 127 5.2 10.4 0.00 0.00 0.00 42 1010.7
20260504185124 70 254 5.2 10.4 0.00 0.00 0.00 39 1010.7
20260504184625 70 188 3.5 9.6 0.00 0.00 0.00 40 1010.7
20260504184125 71 175 5.2 10.4 0.00 0.00 0.00 43 1010.8
20260504183623 70 275 5.2 10.4 0.00 0.00 0.00 37 1010.8
20260504183124 70 234 3.5 11.3 0.00 0.00 0.00 40 1010.9
20260504182950 70 147 4.3 11.3 0.00 0.00 0.00 39 1011.0
20260504182123 70 254 6.1 11.3 0.00 0.00 0.00 40 1011.1
20260504181624 70 172 7.0 11.3 0.00 0.00 0.00 41 1011.2
20260504181123 70 265 3.5 10.4 0.00 0.00 0.00 40 1011.3
20260504180624 70 244 4.3 10.4 0.00 0.00 0.00 38 1011.4
20260504180125 70 147 2.6 8.7 0.00 0.00 0.00 38 1011.3
20260504175944 70 199 4.3 9.6 0.00 0.00 0.00 36 1011.5
20260504175124 70 337 4.3 9.6 0.00 0.00 0.00 37 1011.6
20260504174625 69 296 4.3 10.4 0.00 0.00 0.00 44 1011.6
20260504174440 69 223 3.5 15.6 0.00 0.00 0.00 38 1011.6
20260504173624 69 275 5.2 15.6 0.00 0.00 0.00 43 1011.7
20260504173436 69 231 5.2 11.3 0.00 0.00 0.00 41 1011.8
20260504172624 69 268 4.3 9.6 0.00 0.00 0.00 48 1011.8
20260504172122 69 135 2.6 14.8 0.00 0.00 0.00 48 1011.8
20260504171622 69 114 7.0 14.8 0.00 0.00 0.00 40 1011.9
20260504171121 69 200 5.2 13.9 0.00 0.00 0.00 38 1012.1
20260504170623 69 279 6.1 13.9 0.00 0.00 0.00 42 1012.2
20260504170122 69 169 3.5 11.3 0.00 0.00 0.00 38 1012.1
20260504160122 68 226 6.1 10.4 0.00 0.00 0.00 37 1012.9
20260504151121 0 269 3.5 10.4 0.00 0.00 0.00 1013.4
20260504150620 0 281 5.2 10.4 0.00 0.00 0.00 1013.2
20260504150426 64 243 5.2 9.6 0.00 0.00 0.00 47 1013.3
20260504141119 62 227 3.5 10.4 0.00 0.00 0.00 56 1013.4
20260504140618 62 259 5.2 10.4 0.00 0.00 0.00 55 1013.4
20260504140119 61 248 3.5 7.8 0.00 0.00 0.00 56 1013.4
20260504130115 57 202 4.3 7.8 0.00 0.00 0.00 67 1013.9
20260504120117 52 200 3.5 8.7 0.00 0.00 0.00 76 1014.1
20260504110612 46 210 3.5 5.2 0.00 0.00 0.00 81 1014.2
20260504110113 46 207 1.7 4.3 0.00 0.00 0.00 82 1014.3
20260504100612 44 196 0.9 3.5 0.00 0.00 0.00 81 1014.4
20260504100418 44 204 1.7 3.5 0.00 0.00 0.00 81 1014.4
20260504081607 46 251 1.7 4.3 0.00 0.00 0.00 71 1014.3
20260504081106 46 241 1.7 4.3 0.00 0.00 0.00 71 1014.3
20260504080604 46 213 1.7 4.3 0.00 0.00 0.00 70 1014.3
20260504080104 47 240 1.7 4.3 0.00 0.00 0.00 70 1014.3